Weather History for 76225 - November, 2012

Change the Weather History Date:

Friday, November 30, 2012

  Actual Average Record
Temperature  
Mean Temperature 60 °F -  
Max Temperature 76 °F 61 °F - ()
Min Temperature 43 °F 31 °F - ()
Degree Days  
Heating Degree Days 6    
Growing Degree Days 10 (Base 50)    
Moisture  
Dew Point 37 °F    
Average Humidity 42    
Maximum Humidity 81    
Minimum Humidity 17    
Precipitation  
Precipitation 0.00 in - - ()
Sea Level Pressure  
Sea Level Pressure 30.09 in    
Wind  
Wind Speed 3 mph ()    
Max Wind Speed 10 mph    
Max Gust Speed -    
Visibility 7.8 miles    
Events      
T = Trace of Precipitation, MM = Missing Value Source: Averaged Metar Reports

Daily Weather History Graph

Daily Weather History Graph

Search for Another Location

Airport or City:

Trip Planner

Search our weather history database for the weather conditions in past years. The results will help you decide how hot, cold, wet, or windy it might be!

Date:

Astronomy

Nov. 30, 2012 Rise Set
Actual Time 6:39 AM MST 5:06 PM MST
Civil Twilight 6:13 AM MST 5:32 PM MST
Nautical Twilight 5:44 AM MST 6:01 PM MST
Astronomical Twilight 5:15 AM MST 6:29 PM MST
Moon 7:02 PM MST (11/30) 8:13 AM MST (11/30)
Length of Visible Light 11h 18m
Length of Day
10h 27m
Waning Gibbous, 96% of the Moon is Illuminated
Nov 30
Waning Gibbous
Dec 6
Last Quarter
Dec 13
New
Dec 19
First Quarter
Dec 28
Full

Hourly Weather History & Observations

Time (MST) Temp. Windchill Dew Point Humidity Pressure Visibility Wind Dir Wind Speed Gust Speed Precip Events Conditions
1:45 AM 48 °F - 40 °F 67% 29.96 in 1 mi Calm Calm - -  
4:45 AM 45 °F - 38 °F 69% 30.01 in 1 mi Calm Calm - -   Clear
5:40 AM 39.2 °F 37.0 °F 33.8 °F 81% 30.13 in 10.0 mi South 3.5 mph - N/A   Scattered Clouds
6:40 AM 42.8 °F 38.0 °F 33.8 °F 70% 30.26 in 10.0 mi South 8.1 mph - N/A   Scattered Clouds
7:45 AM 47 °F - 43 °F 79% 30.09 in 6 mi Calm Calm - -   Clear
7:48 AM 44.6 °F 42.2 °F 35.6 °F 71% 30.19 in 10.0 mi South 4.6 mph - N/A   Mostly Cloudy
8:43 AM 51.8 °F - 35.6 °F 54% 30.29 in 10.0 mi SW 3.5 mph - N/A   Mostly Cloudy
9:49 AM 59.0 °F - 37.4 °F 45% 30.29 in 10.0 mi Calm Calm - N/A   Mostly Cloudy
10:45 AM 69 °F - 40 °F 24% 30.09 in 6 mi East 2.2 mph - -   Partly Cloudy
10:48 AM 66.2 °F - 35.6 °F 32% 30.12 in 10.0 mi Calm Calm - N/A   Scattered Clouds
11:49 AM 71.6 °F - 37.4 °F 29% 30.21 in 10.0 mi ESE 3.5 mph - N/A   Scattered Clouds
12:48 PM 73.4 °F - 37.4 °F 27% 30.18 in 10.0 mi ENE 5.8 mph - N/A   Scattered Clouds
1:40 PM 76 °F - 43 °F 20% 29.91 in 6 mi ENE 6.7 mph - -  
1:40 PM 73.4 °F - 37.4 °F 27% 30.01 in 10.0 mi ENE 9.2 mph - N/A   Clear
2:40 PM 77.0 °F - 37.4 °F 24% 30.13 in 10.0 mi East 10.4 mph - N/A   Clear
3:44 PM 77.0 °F - 33.8 °F 21% 30.13 in 10.0 mi SSE 6.9 mph - N/A   Clear
4:45 PM 73 °F - 38 °F 17% 29.83 in 6 mi South 6.7 mph - -  
4:48 PM 71.6 °F - 35.6 °F 27% 30.03 in 10.0 mi East 8.1 mph - N/A   Clear
5:40 PM 64.4 °F - 33.8 °F 32% 30.14 in 10.0 mi East 5.8 mph - N/A   Clear
6:40 PM 57.2 °F - 33.8 °F 41% 30.16 in 10.0 mi WSW 6.9 mph - N/A   Clear
7:40 PM 55.4 °F - 33.8 °F 44% 30.10 in 10.0 mi SW 4.6 mph - N/A   Clear
7:45 PM 63 °F - 37 °F 27% 29.82 in 1 mi SSW 2.2 mph - -  
8:45 PM 48.2 °F - 32.0 °F 54% 30.18 in 10.0 mi SSE 8.1 mph - N/A   Clear
10:45 PM 56 °F - 35 °F 34% 29.86 in 1 mi Calm Calm - -